Tracking 30995 objects as of 7-Jul-2025
HD Live streaming from Space Station
objects crossing your sky now

DELTA 1 DEB

Track DELTA 1 DEB now!
10-day predictions


NORAD ID: 19590
Int'l Code: 1973-086HG
Perigee: 1,512.4 km
Apogee: 1,584.6 km
Inclination: 102.5 °
Period: 116.9 minutes
Semi major axis: 7919 km
RCS: 0.0128 m2 (small)
Launch date: November 6, 1973
Source: United States (US)
Launch site: AIR FORCE WESTERN TEST RANGE (AFWTR)

Note: This is SATELLITE DEBRIS
Your satellite tracking list
Your tracking list is empty




NASA's NSSDC Master Catalog

Two Line Element Set (TLE):
1 19590U 73086HG  25187.54113282 -.00000028  00000-0  15579-3 0  9998
2 19590 102.4770 201.8723 0045610 314.3191 198.1825 12.31845870603594
Source of the keplerian elements: AFSPC